Terug naar catalogus

CRRES DEB

CANISTER

ActiefGTO
NORAD 21594·DEBRIS·🇺🇸 United States

Gelanceerd Jul 25, 1990 vanaf Cape Canaveral Space Force Station

Loading…

TLE

VerouderendSource: Space-Track

Epoch: Sep 14, 2026, 11:40 UTC

1 21594U 90065K   26257.48657660  .00000002  00000-0  90955-3 0  9998
2 21594  17.3389  23.4727 7053883 209.6458  78.5074  2.44879539309810

Volg CRRES DEB in realtime met AllMySat

Download on the App Store